#timestamp,LO_Frequency,Hit,Temp,Hum 
1479092415.0,286047000.9,N,0.0,0.0
1479092415.9,286047000.9,N,0.0,0.0
1479092435.7,286046999.4,N,0.0,0.0
1479092455.6,286046996.6,N,0.0,0.0
1479092475.4,286046998.8,N,0.0,0.0
1479092495.3,286047001.2,N,0.0,0.0
1479092515.1,286046999.7,N,0.0,0.0
1479092516.0,286046999.7,N,0.0,0.0
1479092535.8,286047002.7,N,0.0,0.0
1479092555.7,286046999.1,N,0.0,0.0
1479092575.5,286046998.8,N,0.0,0.0
1479092595.3,286046998.7,N,0.0,0.0
1479092615.2,286046998.4,N,0.0,0.0
1479092635.0,286046998.9,N,0.0,0.0
1479092635.9,286046998.9,N,0.0,0.0
1479092655.8,286046998.3,N,0.0,0.0
1479092675.6,286046998.2,N,0.0,0.0
1479092695.4,286047001.2,N,0.0,0.0
1479092715.3,286046998.3,N,0.0,0.0
1479092735.1,286047001.2,N,0.0,0.0
1479092755.8,286046998.6,N,0.0,0.0
1479092775.7,286046999.3,N,0.0,0.0
1479092795.5,286046996.6,N,0.0,0.0
1479092815.4,286046996.9,N,0.0,0.0
1479092835.2,286046996.7,N,0.0,0.0
1479092855.0,286046997.2,N,0.0,0.0
1479092855.9,286046997.2,N,0.0,0.0
1479092875.8,286046999.6,N,0.0,0.0
1479092895.6,286046999.0,N,0.0,0.0
1479092915.4,286046998.9,N,0.0,0.0
1479092935.3,286046999.1,N,0.0,0.0
1479092955.1,286046998.7,N,0.0,0.0
1479092975.8,286047001.2,N,0.0,0.0
1479092995.7,286047000.9,N,0.0,0.0
1479093015.5,286046998.1,N,0.0,0.0
1479093035.4,286046998.6,N,0.0,0.0
1479093055.2,286047001.0,N,0.0,0.0
1479093075.0,286047002.5,N,0.0,0.0
1479093075.9,286047002.5,N,0.0,0.0
1479093095.8,286046999.9,N,0.0,0.0
1479093115.6,286047000.9,N,0.0,0.0
1479093135.4,286047000.4,N,0.0,0.0
1479093155.3,286047000.6,N,0.0,0.0
1479093175.1,286047000.5,N,0.0,0.0
1479093195.9,286047000.2,N,0.0,0.0
1479093215.7,286047000.3,N,0.0,0.0
1479093235.5,286046999.7,N,0.0,0.0
1479093255.4,286047002.8,N,0.0,0.0
1479093275.2,286046998.4,N,0.0,0.0
1479093295.0,286046999.1,N,0.0,0.0
1479093295.9,286046999.1,N,0.0,0.0
1479093315.8,286046997.6,N,0.0,0.0
1479093335.6,286046996.1,N,0.0,0.0
1479093355.5,286046993.4,N,0.0,0.0
1479093375.3,286046995.6,N,0.0,0.0
1479093395.1,286046995.6,N,0.0,0.0
1479093415.9,286046995.3,N,0.0,0.0
1479093435.7,286046997.4,N,0.0,0.0
1479093455.5,286046996.7,N,0.0,0.0
1479093475.4,286046997.3,N,0.0,0.0
1479093495.2,286046997.8,N,0.0,0.0
1479093515.0,286047043.3,N,0.0,0.0
1479093516.0,286047043.3,N,0.0,0.0
1479093535.8,286047043.4,N,0.0,0.0
1479093555.6,286047043.2,N,0.0,0.0
1479093575.5,286047041.3,N,0.0,0.0
1479093595.3,286047044.4,N,0.0,0.0
1479093615.1,286047042.7,N,0.0,0.0
1479093635.9,286047041.9,N,0.0,0.0
1479093655.7,286047042.8,N,0.0,0.0
1479093675.5,286047041.5,N,0.0,0.0
1479093695.4,286047039.7,N,0.0,0.0
1479093715.2,286047040.3,N,0.0,0.0
1479093735.1,286047042.6,N,0.0,0.0
1479093736.0,286047042.6,N,0.0,0.0
1479093755.8,286047040.0,N,0.0,0.0
1479093775.6,286047040.3,N,0.0,0.0
1479093795.5,286047042.2,N,0.0,0.0
1479093815.3,286047039.4,N,0.0,0.0
1479093835.1,286047037.2,N,0.0,0.0
1479093855.9,286047043.9,N,0.0,0.0
1479093875.7,286047041.6,N,0.0,0.0
1479093895.6,286047038.4,N,0.0,0.0
1479093915.4,286047038.7,N,0.0,0.0
1479093935.2,286047043.5,N,0.0,0.0
1479093955.1,286047042.6,N,0.0,0.0
1479093956.0,286047042.6,N,0.0,0.0
1479093975.8,286047040.5,N,0.0,0.0
1479093995.6,286047036.9,N,0.0,0.0
1479094015.5,286047039.9,N,0.0,0.0
1479094035.3,286047042.2,N,0.0,0.0
1479094055.2,286047040.6,N,0.0,0.0
1479094075.9,286047042.0,N,0.0,0.0
1479094095.7,286047051.6,N,0.0,0.0
1479094115.6,286047040.1,N,0.0,0.0
1479094135.4,286047039.7,N,0.0,0.0
1479094155.2,286047042.1,N,0.0,0.0
1479094175.1,286047044.4,N,0.0,0.0
1479094176.0,286047044.4,N,0.0,0.0
1479094195.8,286047043.1,N,0.0,0.0
1479094215.7,286047043.4,N,0.0,0.0
1479094235.5,286047045.9,N,0.0,0.0
1479094255.3,286047045.2,N,0.0,0.0
1479094275.2,286047058.5,N,0.0,0.0
1479094295.9,286047047.5,N,0.0,0.0
1479094315.7,286047044.7,N,0.0,0.0
1479094335.6,286047045.8,N,0.0,0.0
1479094355.4,286047045.9,N,0.0,0.0
1479094375.2,286047038.6,N,0.0,0.0
1479094395.1,286047044.2,N,0.0,0.0
1479094396.0,286047044.2,N,0.0,0.0
1479094415.8,286047042.5,N,0.0,0.0
1479094435.7,286047046.2,N,0.0,0.0
1479094455.5,286047046.0,N,0.0,0.0
1479094475.3,286047043.4,N,0.0,0.0
1479094495.2,286047044.4,N,0.0,0.0
1479094515.0,286047045.9,N,0.0,0.0
1479094515.9,286047045.9,N,0.0,0.0
1479094535.8,286047045.7,N,0.0,0.0
1479094555.6,286047043.4,N,0.0,0.0
1479094575.4,286047043.6,N,0.0,0.0
1479094595.3,286047043.8,N,0.0,0.0
1479094615.1,286047045.2,N,0.0,0.0
1479094616.0,286047045.2,N,0.0,0.0
1479094635.8,286047044.1,N,0.0,0.0
1479094655.7,286047044.1,N,0.0,0.0
1479094675.5,286047045.6,N,0.0,0.0
1479094695.3,286047043.0,N,0.0,0.0
1479094715.2,286047043.3,N,0.0,0.0
1479094735.0,286047045.5,N,0.0,0.0
1479094735.9,286047045.5,N,0.0,0.0
1479094755.8,286047044.8,N,0.0,0.0
1479094775.6,286047046.0,N,0.0,0.0
1479094795.4,286047045.8,N,0.0,0.0
1479094815.3,286047042.9,N,0.0,0.0
1479094835.1,286047047.2,N,0.0,0.0
1479094855.8,286047045.0,N,0.0,0.0
1479094875.7,286047046.3,N,0.0,0.0
1479094895.5,286047047.0,N,0.0,0.0
1479094915.4,286047046.9,N,0.0,0.0
1479094935.2,286047047.6,N,0.0,0.0
1479094955.0,286047047.6,N,0.0,0.0
1479094955.9,286047047.6,N,0.0,0.0
1479094975.8,286047047.0,N,0.0,0.0
1479094995.6,286047046.3,N,0.0,0.0
1479095015.4,286047046.6,N,0.0,0.0
1479095035.3,286047047.8,N,0.0,0.0
1479095055.1,286047047.7,N,0.0,0.0
1479095075.9,286047050.2,N,0.0,0.0
1479095095.7,286047049.9,N,0.0,0.0
1479095115.5,286047050.3,N,0.0,0.0
1479095135.4,286047047.8,N,0.0,0.0
1479095155.2,286047048.1,N,0.0,0.0
1479095175.0,286047050.8,N,0.0,0.0
1479095175.9,286047050.8,N,0.0,0.0
1479095195.8,286047049.9,N,0.0,0.0
1479095215.6,286047049.7,N,0.0,0.0
1479095235.5,286047051.8,N,0.0,0.0
1479095255.3,286047051.9,N,0.0,0.0
1479095275.1,286047052.1,N,0.0,0.0
1479095295.9,286047053.9,N,0.0,0.0
1479095315.7,286047052.8,N,0.0,0.0
1479095335.5,286047054.0,N,0.0,0.0
1479095355.4,286047050.9,N,0.0,0.0
1479095375.2,286047053.4,N,0.0,0.0
1479095395.1,286047053.4,N,0.0,0.0
1479095396.0,286047053.4,N,0.0,0.0
1479095415.8,286047052.8,N,0.0,0.0
1479095435.6,286047051.1,N,0.0,0.0
1479095455.5,286047053.5,N,0.0,0.0
1479095475.3,286047052.5,N,0.0,0.0
1479095495.1,286047053.1,N,0.0,0.0
1479095515.9,286047055.2,N,0.0,0.0
1479095535.7,286047054.1,N,0.0,0.0
1479095555.6,286047051.3,N,0.0,0.0
1479095575.4,286047051.8,N,0.0,0.0
1479095595.2,286047049.3,N,0.0,0.0
1479095615.1,286047052.0,N,0.0,0.0
1479095616.0,286047052.0,N,0.0,0.0
1479095635.8,286047052.4,N,0.0,0.0
1479095655.6,286047052.2,N,0.0,0.0
1479095675.5,286047049.5,N,0.0,0.0
1479095695.3,286047054.8,N,0.0,0.0
1479095715.1,286047055.6,N,0.0,0.0
1479095735.9,286047055.6,N,0.0,0.0
1479095755.7,286047056.8,N,0.0,0.0
1479095775.6,286047053.0,N,0.0,0.0
1479095795.4,286047055.6,N,0.0,0.0
1479095815.2,286047055.2,N,0.0,0.0
1479095835.1,286047054.3,N,0.0,0.0
1479095836.0,286047054.3,N,0.0,0.0
1479095855.8,286047054.5,N,0.0,0.0
1479095875.7,286047055.4,N,0.0,0.0
1479095895.5,286047055.0,N,0.0,0.0
1479095915.3,286047051.0,N,0.0,0.0
1479095935.2,286047053.6,N,0.0,0.0
1479095955.9,286047053.2,N,0.0,0.0
1479095975.7,286047049.5,N,0.0,0.0
1479095995.6,286047052.1,N,0.0,0.0
